AirNav   BOSE ProFlight Aviation Headset
 
 737 users online  

UT15 Flying Cal Ute Rancheros Airport
Paragonah, Utah, USA

GOING TO PARAGONAH?


FAA INFORMATION EFFECTIVE 21 JUNE 2018

Location

FAA Identifier: UT15
Lat/Long: 37-55-42.9060N / 112-46-07.7960W
37-55.715100N / 112-46.129933W
37.9285850 / -112.7688322
(estimated)
Elevation: 5764 ft. / 1757 m (estimated)
Variation: 14E (1990)
From city: 3 miles N of PARAGONAH, UT
Time zone: UTC -6 (UTC -7 during Standard Time)
Zip code: 84761

Airport Operations

Airport use: Private use. Permission required prior to landing
Activation date: 01/1992
Control tower: no
ARTCC: SALT LAKE CITY CENTER
FSS: CEDAR CITY FLIGHT SERVICE STATION
Attendance: UNATNDD
Wind indicator: yes
Segmented circle: no

Airport Communications

WX AWOS-3 at U55 (19 nm E): 133.125 (435-676-8784)
WX AWOS-3 at U52 (19 nm N): 119.925 (435-438-5829)

Nearby radio navigation aids

VOR radial/distance  VOR name  Freq  Var
EHKr043/16.5ENOCH VOR/DME117.3016E
BCEr288/26.3BRYCE CANYON VORTAC112.8015E
MLFr140/28.4MILFORD VORTAC112.1016E

Airport Services

Runway Information

Runway E/W

Dimensions: 5280 x 80 ft. / 1609 x 24 m
Surface: gravel
RUNWAY E  RUNWAY W
Traffic pattern: leftleft

Airport Ownership and Management from official FAA records

Ownership: Privately-owned
Owner: RICHARD TANGRAY
3114 E. CHARLESTON BLVD
LAS VEGAS, NV 89104
Phone 702-457-2622
Manager: R.L. TANGRAY
3114 E. CHARLESTON BLVD
LAS VEGAS, NV 89104
Phone 702-457-2622

Airport Operational Statistics

Aircraft based on the field: 1
Single engine airplanes: 1
    

Instrument Procedures

There are no published instrument procedures at UT15.

Some nearby airports with instrument procedures:

U55 - Panguitch Municipal Airport (19 nm E)
U52 - Beaver Municipal Airport (19 nm N)
KCDC - Cedar City Regional Airport (21 nm SW)
KMLF - Milford Municipal Airport/Ben and Judy Briscoe Field (32 nm N)
KBCE - Bryce Canyon Airport (32 nm SE)
 
Loc | Ops | Rwys | IFR | FBO | Links
Com | Nav | Svcs | Stats | Notes

AirNav Hotels Sweepstakes
 
Area around UT15 (Flying Cal Ute Rancheros Airport)
 
Road maps at: MapQuest Bing Google
 
Aerial photo
No photo
 
Sectional chart

 
Airport distance calculator
Flying to Flying Cal Ute Rancheros Airport? Find the distance to fly.

From to UT15

Sunrise and sunset
Times for 21-Jun-2018
 Local
(UTC-6)
 Zulu
(UTC)
Morning civil twilight05:3811:38
Sunrise06:1012:10
Sunset20:5602:56
Evening civil twilight21:2703:27

Current date and time
Zulu (UTC)  22-Jun-2018 04:35:42
Local (UTC-6)  21-Jun-2018 22:35:42
 
METAR
KCDC 
21nm SW 
220353Z AUTO 19010KT 10SM CLR 27/M11 A3004 RMK AO2 SLP070 T02721106
KMLF 
32nm N 
220422Z AUTO 03015G20KT 10SM CLR 29/M09 A3000 RMK AO2 WSHFT 0408 T02941089
KBCE 
32nm SE 
220353Z AUTO 26005KT 10SM CLR 18/M14 A3022 RMK AO2 SLP092 T01831139
TAF
KCDC 
21nm SW 
220053Z 2201/2224 26015G24KT P6SM FEW100 SCT200 FM220200 19010KT P6SM SKC FM220600 VRB04KT P6SM SKC FM221800 35007KT P6SM SKC
NOTAMs
Click for the latest NOTAMs
NOTAMs are issued by the DoD/FAA and will open in a separate window not controlled by AirNav.

 

 
 

Would you like to see your business listed on this page?

 If your business provides an interesting product or service to pilots, flight crews, aircraft, or users of the Flying Cal Ute Rancheros Airport, you should consider listing it here.  To start the listing process, click on the button below
 
Add a business
 

Other Pages about Flying Cal Ute Rancheros Airport

Update a link
 
Copyright © AirNav, LLC. All rights reserved. Privacy Policy  Contact